Location: Red Deer
(52.2681°N, 113.8112°W)
Time: 02:05:18
(UTC-06:00)

Envisat - Pass Details

Date: 24 April 2024
Orbit: 762 x 764 km, 98.3° (Epoch: 20 May)

Event Time Altitude Azimuth Distance (km) Brightness Sun altitude
Rises 03:45:44 0° 25° (NNE) 3,239 7.9 -18.7°
Reaches altitude 10° 03:48:42 10° 43° (NE) 2,307 6.7 -18.4°
Maximum altitude 03:52:18 19° 88° (E) 1,753 5.3 -18.1°
Drops below altitude 10° 03:55:52 10° 134° (SE) 2,294 5.4 -17.8°
Sets 03:58:49 0° 152° (SSE) 3,214 6.0 -17.5°
Enters shadow 03:58:51 - 152° (SSE) 3,226 6.0 -17.5°
